#timestamp,LO_Frequency,Hit,StdDev 
1642770015.8,286047002.5,N
1642770035.6,286047002.5,N
1642770055.5,286047000.1,N
1642770075.3,286046999.8,N
1642770095.2,286047000.5,N
1642770115.9,286047002.8,N
1642770135.7,286047000.1,N
1642770155.6,286047001.1,N
1642770175.4,286047000.8,N
1642770195.3,286047000.4,N
1642770215.1,286047002.1,N
1642770216.0,286047002.1,N
1642770235.8,286047002.2,N
1642770255.7,286047002.1,N
1642770275.5,286047001.9,N
1642770295.3,286047000.0,N
1642770315.2,286047000.2,N
1642770335.0,286047002.1,N
1642770335.9,286047002.1,N
1642770355.8,286047001.0,N
1642770375.6,286046998.3,N
1642770395.4,286047001.1,N
1642770415.3,286047000.6,N
1642770435.1,286047000.9,N
1642770455.8,286047000.4,N
1642770475.7,286047000.9,N
1642770495.5,286046998.6,N
1642770515.4,286046999.0,N
1642770535.2,286046998.9,N
1642770555.0,286046999.3,N
1642770555.9,286046999.3,N
1642770575.8,286047000.9,N
1642770595.6,286046998.2,N
1642770615.4,286046998.2,N
1642770635.3,286046998.9,N
1642770655.1,286046998.5,N
1642770675.9,286047000.0,N
1642770695.7,286047000.1,N
1642770715.5,286047000.3,N
1642770735.4,286047000.7,N
1642770755.2,286047000.8,N
1642770775.0,286046998.3,N
1642770775.9,286046998.3,N
1642770795.8,286047000.8,N
1642770815.6,286046998.2,N
1642770835.5,286046998.8,N
1642770855.3,286046998.7,N
1642770875.1,286047001.2,N
1642770895.9,286047001.0,N
1642770915.7,286046999.9,N
1642770935.6,286047002.7,N
1642770955.4,286046998.1,N
1642770975.2,286047001.1,N
1642770995.1,286046999.3,N
1642770996.0,286046999.3,N
1642771015.8,286046999.3,N
1642771035.6,286046998.8,N
1642771055.5,286046997.2,N
1642771075.3,286046996.8,N
1642771095.2,286046997.0,N
1642771115.9,286046997.5,N
1642771135.7,286046996.8,N
1642771155.6,286046999.5,N
1642771175.4,286046997.2,N
1642771195.3,286046996.8,N
1642771215.1,286046996.8,N
1642771216.0,286046996.8,N
1642771235.8,286046998.8,N
1642771255.7,286046999.4,N
1642771275.5,286046998.7,N
1642771295.3,286046998.6,N
1642771315.2,286046999.0,N
1642771335.0,286046994.9,Y
1642771335.9,286046994.9,P
1642771355.8,286046997.5,N
1642771375.6,286046996.1,N
1642771395.4,286046994.0,Y
1642771415.3,286046996.7,P
1642771435.1,286046999.5,P
1642771455.9,286046998.8,N
1642771475.7,286046999.3,N
1642771495.5,286046999.3,N
1642771515.4,286046998.3,N
1642771535.2,286047000.7,N
1642771555.0,286046998.6,N
1642771555.9,286046998.6,N
1642771575.8,286046999.0,N
1642771595.6,286046998.1,N
1642771615.5,286047001.0,N
1642771635.3,286047000.0,N
1642771655.2,286047005.0,Y
1642771675.9,286047009.0,P
1642771695.7,286047008.0,N
1642771715.6,286047007.6,N
1642771735.4,286047007.5,N
1642771755.2,286047005.3,N
1642771775.1,286047005.1,N
1642771776.0,286047005.1,N
1642771795.8,286047003.4,N
1642771815.7,286047005.8,N
1642771835.5,286047008.5,Y
1642771855.3,286047002.6,P
1642771875.2,286046998.2,N
1642771895.0,286047001.0,N
1642771895.9,286047001.0,N
1642771915.7,286046999.5,N
1642771935.6,286046997.1,N
1642771955.4,286046995.3,N
1642771975.3,286046996.1,N
1642771995.1,286046996.2,N
1642771996.0,286046996.2,N
1642772015.8,286046996.4,N
1642772035.7,286046995.6,N
1642772055.5,286046995.2,N
1642772075.4,286046995.8,N
1642772095.2,286046994.6,N
1642772115.0,286046994.7,N
1642772115.9,286046994.7,N
1642772135.8,286046993.9,N
1642772155.6,286046994.2,N
1642772175.4,286046994.5,N
1642772195.3,286046996.0,N
1642772215.1,286046995.2,N
1642772235.9,286046995.7,N
1642772255.7,286046995.8,N
1642772275.5,286046996.0,N
1642772295.4,286046993.3,N
1642772315.2,286046994.1,N
1642772335.0,286046992.3,N
1642772335.9,286046992.3,N
1642772355.8,286046994.8,N
1642772375.6,286046994.8,N
1642772395.5,286046994.0,N
1642772415.3,286046996.4,N
1642772435.1,286046995.3,N
1642772455.9,286046997.9,N
1642772475.7,286046995.0,Y
1642772495.6,286047000.2,P
1642772515.4,286047000.0,N
1642772535.2,286047000.3,N
1642772555.1,286046998.1,N
1642772556.0,286046998.1,N
1642772575.8,286047000.3,N
1642772595.6,286047000.8,N
1642772615.5,286047000.4,N
1642772635.3,286046998.8,N
1642772655.2,286046996.9,N
1642772675.9,286046997.8,N
1642772695.7,286046997.0,N
1642772715.6,286046999.2,N
1642772735.4,286046997.0,N
1642772755.2,286046995.6,N
1642772775.1,286046993.8,Y
1642772776.0,286046993.8,P
1642772795.8,286046997.5,N
1642772815.7,286046997.6,N
1642772835.5,286046995.4,N
1642772855.3,286046997.1,N
1642772875.2,286046995.4,N
1642772895.0,286046997.5,N
1642772895.9,286046997.5,N
1642772915.8,286046999.5,N
1642772935.6,286046996.6,N
1642772955.4,286046996.7,N
1642772975.3,286046996.7,N
1642772995.1,286046996.6,N
1642773015.8,286046999.1,N
1642773035.7,286046997.0,N
1642773055.5,286046997.4,N
1642773075.4,286046997.6,N
1642773095.2,286046997.6,N
1642773115.0,286046995.3,Y
1642773115.9,286046995.3,P
1642773135.8,286046997.0,P
1642773155.6,286046995.3,P
1642773175.5,286046997.5,N
1642773195.3,286046997.8,N
1642773215.1,286046996.9,Y
1642773235.9,286047002.8,P
1642773255.7,286047004.1,N
1642773275.5,286047003.7,N
1642773295.4,286047003.7,N
1642773315.2,286047003.6,N
1642773335.1,286047003.6,N
1642773336.0,286047003.6,N
1642773355.8,286047004.1,N
1642773375.6,286047003.1,N
1642773395.5,286047003.7,N
1642773415.3,286047004.3,N
1642773435.2,286047004.3,N
1642773455.9,286047002.5,N
1642773475.7,286047002.1,N
1642773495.6,286047002.0,N
1642773515.4,286046999.8,N
1642773535.3,286047002.7,N
1642773555.1,286047004.2,N
1642773556.0,286047004.2,N
1642773575.8,286047001.7,N
1642773595.7,286047002.0,N
